1329068020016531,  0.00583385087, -0.00056695705,  0.00001897780, -0.00000024845, -0.00000326960,  0.00000641590,  0.00291284506,  0.00010544820,  0.00000242009,  0.00000281254, -0.00000586374,  0.01000894298,  0.00001095999,  0.00007597950,  0.00000381546,  0.00000953330,  0.00000021301, -0.00000015135,  0.00001627966,  0.00000055222,  0.00000468557
1329068053219823,  0.00584352070, -0.00054002514,  0.00003526009,  0.00000075023, -0.00000229782,  0.00000394376,  0.00292366770,  0.00008640302,  0.00000121700,  0.00000172505,  0.00000639473,  0.00953156177,  0.00000001323,  0.00001793630,  0.00000087907,  0.00001753978, -0.00000628087,  0.00000051666,  0.00001385798, -0.00000001134,  0.00000451852
1329068057020191,  0.00589307570, -0.00051441081,  0.00004272056,  0.00000012325, -0.00000081164,  0.00000044810,  0.00300101913,  0.00007825246,  0.00000153141,  0.00000088455,  0.00001563620,  0.00956355027,  0.00004266088, -0.00001321682,  0.00000131264,  0.00002633185, -0.00000389966,  0.00000073735,  0.00001171785, -0.00000008596,  0.00000618037
1329068060820569,  0.00592973054, -0.00046653231,  0.00004591105,  0.00000061306, -0.00000055267,  0.00000304726,  0.00305129791,  0.00007694560,  0.00000238758,  0.00000018615,  0.00001970911,  0.00976689700,  0.00006769695, -0.00001734335, -0.00000132950,  0.00002685058,  0.00000021791, -0.00000006796,  0.00001042828,  0.00000015496,  0.00000639337
1329068064420919,  0.00597844737, -0.00041982776,  0.00004260790, -0.00000109489, -0.00000047249,  0.00000660936,  0.00303798031,  0.00007968645,  0.00000130753, -0.00000064566,  0.00001566216,  0.00992572762,  0.00005773522, -0.00003028754,  0.00000086934,  0.00002849046,  0.00000003542,  0.00000082747,  0.00001013987,  0.00000011222,  0.00000651766
1329068068021274,  0.00606298472, -0.00037270838,  0.00003825609, -0.00000336695, -0.00000033443,  0.00001137201,  0.00303829092,  0.00009276029,  0.00000099340, -0.00000174524,  0.00001324398,  0.01028026033,  0.00005136594, -0.00004666206,  0.00000100875,  0.00002528949,  0.00000003341,  0.00000056588,  0.00001025026,  0.00000003834,  0.00000633491
1329068071621625,  0.00619523237, -0.00034425842,  0.00004503179, -0.00000248132, -0.00000128428,  0.00001756114,  0.00302439905,  0.00010269251,  0.00000120834, -0.00000170889,  0.00000758950,  0.01073771124,  0.00004875897, -0.00005501236, -0.00000016793,  0.00001772353,  0.00000072297,  0.00000021085,  0.00001068008,  0.00000013740,  0.00000571861
1329068076822139,  0.00633330228, -0.00039183495,  0.00005743573,  0.00000131319, -0.00000130094,  0.00002283984,  0.00300860110,  0.00010076948,  0.00000130885,  0.00000076099,  0.00000007040,  0.01102191424,  0.00007591558,  0.00001881611, -0.00000224164,  0.00001433829,  0.00000359945, -0.00000036608,  0.00001498362, -0.00000022707,  0.00000576334
1329068080422490,  0.00636179052, -0.00049869514,  0.00006708510, -0.00000031771, -0.00000129129,  0.00001414973,  0.00300400335,  0.00009148396,  0.00000015602,  0.00000075590,  0.00000121644,  0.01087826491,  0.00003833826,  0.00000447293,  0.00000218548,  0.00002345732,  0.00000317732,  0.00000064060,  0.00001409346,  0.00000000829,  0.00000692240
1329068084022831,  0.00637380457, -0.00061266123,  0.00007891390, -0.00000102054, -0.00000143040,  0.00000960481,  0.00296343026,  0.00008513956, -0.00000052902,  0.00000130202,  0.00001172544,  0.01090822125,  0.00001929623,  0.00000274634,  0.00000165748,  0.00002090756, -0.00000012342,  0.00000089301,  0.00001611392, -0.00000014839,  0.00000768923
1329068087623208,  0.00635640552, -0.00068688121,  0.00009415027, -0.00000102603, -0.00000235362,  0.00000933209,  0.00285505706,  0.00008049264,  0.00000032878,  0.00000150154,  0.00001333869,  0.01102722693,  0.00001409053, -0.00001699412,  0.00000189546,  0.00001581820,  0.00000100465,  0.00000053869,  0.00001518469, -0.00000025120,  0.00000621400
1329068091223546,  0.00635836862, -0.00072742866,  0.00011785096, -0.00000116677, -0.00000407859,  0.00000235533,  0.00273724675,  0.00007644209,  0.00000137515,  0.00000097562,  0.00001089543,  0.01138999100, -0.00000681284, -0.00005048694,  0.00000084130,  0.00001721035,  0.00000266029,  0.00000071119,  0.00001436839,  0.00000004430,  0.00000599604
1329068094823901,  0.00638585393, -0.00073716541,  0.00014824014, -0.00000166234, -0.00000469978, -0.00000763059,  0.00261491015,  0.00007452415,  0.00000196707,  0.00000031885,  0.00001420440,  0.01207744855, -0.00004204688, -0.00007614219, -0.00000209349,  0.00002055965,  0.00000244611,  0.00000070352,  0.00001489660,  0.00000015147,  0.00000676636
1329068098424267,  0.00641438788, -0.00071004139,  0.00018692470, -0.00000167474, -0.00000631404, -0.00001672288,  0.00248123848,  0.00007256301,  0.00000310339,  0.00000066211,  0.00001338019,  0.01309250570, -0.00006897204, -0.00011579616, -0.00000034770,  0.00002190462,  0.00000377246,  0.00000051072,  0.00001641305, -0.00000003675,  0.00000746298
1329068102224640,  0.00646549872, -0.00063725536,  0.00020926905, -0.00000257968, -0.00000492965, -0.00002992980,  0.00235867942,  0.00008645185,  0.00000206766, -0.00000074656,  0.00000720060,  0.01453870743, -0.00013413127, -0.00014951641,  0.00000058074,  0.00002126166,  0.00000579949, -0.00000001364,  0.00001802884, -0.00000008403,  0.00000809425
1329068108025185,  0.00630951865, -0.00056060348,  0.00023050183, -0.00000674040,  0.00000296818, -0.00001616024,  0.00227956588,  0.00009069871,  0.00000049199, -0.00000497936,  0.00000815865,  0.01456478525, -0.00017183190,  0.00005960199, -0.00000221968,  0.00002060759, -0.00000596532,  0.00000001837,  0.00001560964,  0.00000033226,  0.00000704032
1329068115025866,  0.00618141911, -0.00048387046,  0.00019045383, -0.00000458839,  0.00000212024, -0.00000591171,  0.00224635701,  0.00012270833,  0.00000000451, -0.00000385277,  0.00001550351,  0.01423274737, -0.00014693392,  0.00002440834,  0.00000326424,  0.00002136291, -0.00000404183, -0.00000066883,  0.00001176739,  0.00000050447,  0.00000634940
1329068118826243,  0.00611612835, -0.00040479184,  0.00016616052, -0.00000476843,  0.00000123306, -0.00000091836,  0.00225833554,  0.00014341911,  0.00000210447, -0.00000470454,  0.00002435959,  0.01411048165, -0.00011829051, -0.00000931310,  0.00000786895,  0.00002642552, -0.00000202266, -0.00000204009,  0.00001255622,  0.00000062819,  0.00000822025
1329068122426597,  0.00606108822, -0.00033165701,  0.00013607700, -0.00000301332,  0.00000096824,  0.00000392273,  0.00221514187,  0.00016680093,  0.00000038419, -0.00000406919,  0.00002627018,  0.01430639761, -0.00011087618, -0.00002742203,  0.00000069938,  0.00002696530, -0.00000020611, -0.00000095627,  0.00001305846,  0.00000040261,  0.00000848995
1329068126026946,  0.00600377563, -0.00027777950,  0.00010695264, -0.00000181269,  0.00000116724,  0.00000311551,  0.00213718917,  0.00019086196, -0.00000073981, -0.00000331837,  0.00002294646,  0.01479680000, -0.00011755074, -0.00005710553, -0.00000286966,  0.00002728044,  0.00000290892, -0.00000028965,  0.00001312139,  0.00000023850,  0.00000822878
1329068129827316,  0.00594664283, -0.00023686022,  0.00007960337, -0.00000076596,  0.00000181824,  0.00000148765,  0.00206609781,  0.00021202487, -0.00000069558, -0.00000260292,  0.00001842938,  0.01536607500, -0.00014297052, -0.00005399169,  0.00000516110,  0.00002715595,  0.00000237954, -0.00000122825,  0.00001206114,  0.00000002546,  0.00000774872
1329068133427670,  0.00588778321, -0.00021240949,  0.00004481231,  0.00000005224,  0.00000255047, -0.00000165921,  0.00199557190,  0.00023789676, -0.00000178258, -0.00000279654,  0.00000865696,  0.01627394525, -0.00016426312, -0.00010682407, -0.00000149461,  0.00002334616,  0.00000700103, -0.00000016613,  0.00001406097,  0.00000008433,  0.00000691767
1329068137028011,  0.00584619805, -0.00019719938,  0.00001315071,  0.00000220158,  0.00000200760, -0.00000355481,  0.00197562368,  0.00025605821, -0.00000331009, -0.00000085636,  0.00000421015,  0.01684215124, -0.00021857344,  0.00001146939,  0.00001049371,  0.00002687151, -0.00000109466, -0.00000119651,  0.00001006796,  0.00000018342,  0.00000680737
1329068140628392,  0.00581376204, -0.00019756270, -0.00001190058,  0.00000312151,  0.00000147723, -0.00000188953,  0.00196869814,  0.00026326619, -0.00000368161, -0.00000012916,  0.00000248795,  0.01677937693, -0.00021373600,  0.00004180981,  0.00001503342,  0.00002715478, -0.00000193386, -0.00000158435,  0.00000977508,  0.00000031723,  0.00000660121
1329068144228724,  0.00580944763, -0.00020402165, -0.00002050014,  0.00000260688,  0.00000122657, -0.00000193813,  0.00196950506,  0.00025797499, -0.00000344578, -0.00000019682,  0.00000482693,  0.01623819616, -0.00019188407,  0.00004645945,  0.00001002612,  0.00002887204, -0.00000193898, -0.00000125572,  0.00001013097,  0.00000023245,  0.00000691306
1329068147829077,  0.00581244505, -0.00020541941, -0.00003510475,  0.00000346508,  0.00000096738, -0.00000061729,  0.00196746861,  0.00025438527, -0.00000341150,  0.00000022103,  0.00000651415,  0.01570932268, -0.00017191607,  0.00004617120,  0.00000777141,  0.00002920279, -0.00000184451, -0.00000107749,  0.00001013915,  0.00000017463,  0.00000689980
1329068151429431,  0.00581694674, -0.00020287924, -0.00005040406,  0.00000501204,  0.00000042176, -0.00000135621,  0.00196278611,  0.00025202423, -0.00000357163,  0.00000106454,  0.00000717050,  0.01526069400, -0.00015550205,  0.00005591607,  0.00000216481,  0.00002877040, -0.00000286189, -0.00000024427,  0.00001041603,  0.00000011334,  0.00000682003
1329068155229797,  0.00581908609, -0.00019612011, -0.00003460347,  0.00000197315,  0.00000062883, -0.00000277645,  0.00196877079,  0.00023826333, -0.00000311038, -0.00000005416,  0.00001093179,  0.01468145186, -0.00013069848,  0.00005231219,  0.00000080828,  0.00002898601, -0.00000228599,  0.00000004928,  0.00001091097,  0.00000011872,  0.00000720241
1329068158830154,  0.00580110089, -0.00018355890, -0.00003144107,  0.00000105438,  0.00000068106, -0.00000314185,  0.00196506510,  0.00023215025, -0.00000256900, -0.00000047306,  0.00001181621,  0.01423835841, -0.00011770886,  0.00004760666,  0.00000557810,  0.00002926166, -0.00000205091, -0.00000081762,  0.00001062291,  0.00000022819,  0.00000711036
1329068162230478,  0.00576837937, -0.00016945731, -0.00002522816, -0.00000073457,  0.00000070848, -0.00000597840,  0.00196277303,  0.00022656373, -0.00000263329, -0.00000100443,  0.00001304647,  0.01382818225, -0.00010739053,  0.00004183038,  0.00000130090,  0.00002960179, -0.00000135087, -0.00000009902,  0.00001080321,  0.00000011175,  0.00000730761
1329068165830829,  0.00571417616, -0.00015393074, -0.00002536368, -0.00000106076,  0.00000096814, -0.00000871092,  0.00195751785,  0.00022522962, -0.00000254651, -0.00000143157,  0.00001315123,  0.01346166660, -0.00009933728,  0.00004224329,  0.00000330057,  0.00002977465, -0.00000158667, -0.00000034440,  0.00001082098,  0.00000023032,  0.00000735126
1329068169431178,  0.00563195699, -0.00013854295, -0.00002675107, -0.00000096368,  0.00000084891, -0.00001085431,  0.00195354373,  0.00022479072, -0.00000248810, -0.00000129191,  0.00001403950,  0.01306152070, -0.00008945730,  0.00003979845,  0.00000271412,  0.00002908800, -0.00000136804, -0.00000035320,  0.00001056885,  0.00000018235,  0.00000713966
1329068173031549,  0.00552356490, -0.00012104465, -0.00002740382, -0.00000131726,  0.00000093553, -0.00001388659,  0.00194093756,  0.00022629247, -0.00000224071, -0.00000167822,  0.00001280286,  0.01273392101, -0.00009258168,  0.00003114858,  0.00000471496,  0.00002883794,  0.00000072186, -0.00000077345,  0.00001020318,  0.00000015815,  0.00000697389
1329068176431858,  0.00538648709, -0.00010407416, -0.00002655051, -0.00000140390,  0.00000080480, -0.00001537488,  0.00193254845,  0.00022705629, -0.00000269984, -0.00000143550,  0.00001238943,  0.01237231690, -0.00008578931,  0.00003756648,  0.00000152408,  0.00002840416, -0.00000103175, -0.00000015025,  0.00000994655,  0.00000013355,  0.00000674212
1329068180032221,  0.00522460289, -0.00008829333, -0.00002858033, -0.00000128139,  0.00000064770, -0.00001713963,  0.00192022215,  0.00023001392, -0.00000257077, -0.00000159185,  0.00001101674,  0.01204925001, -0.00009067912,  0.00002749847,  0.00000225373,  0.00002824914,  0.00000091604, -0.00000037422,  0.00000966564,  0.00000009912,  0.00000659591
1329068183632556,  0.00503973424, -0.00007891698, -0.00002782817, -0.00000213379,  0.00000038279, -0.00001866797,  0.00191210304,  0.00023142299, -0.00000252765, -0.00000148789,  0.00001054960,  0.01170343558, -0.00008759721,  0.00003140027,  0.00000338103,  0.00002796323,  0.00000007241, -0.00000080527,  0.00000959658,  0.00000007085,  0.00000660691
1329068187232908,  0.00484501433, -0.00007564288, -0.00002982023, -0.00000195632,  0.00000034599, -0.00002226016,  0.00190691412,  0.00023416962, -0.00000280992, -0.00000089621,  0.00000980880,  0.01138959477, -0.00008337347,  0.00004682880,  0.00000334074,  0.00002778976, -0.00000270360, -0.00000085329,  0.00001086573,  0.00000018657,  0.00000721586
1329068190833256,  0.00463885241, -0.00010039811, -0.00003164362, -0.00000076979,  0.00000076249, -0.00002244305,  0.00191775850,  0.00023231283, -0.00000261828, -0.00000062375,  0.00001420978,  0.01088275738, -0.00005538844,  0.00004950377,  0.00000286320,  0.00002589229, -0.00000454028, -0.00000058978,  0.00001184936,  0.00000031735,  0.00000714833
1329068194633625,  0.00441790177, -0.00012054617, -0.00002777984, -0.00000117871,  0.00000041911, -0.00002374757,  0.00191711278,  0.00023116038, -0.00000238655, -0.00000153930,  0.00001540888,  0.01049348933, -0.00006091966,  0.00003168714,  0.00000201618,  0.00002676948, -0.00000026166, -0.00000040010,  0.00001085094,  0.00000014793,  0.00000729723
1329068198033946,  0.00419989760, -0.00012500453, -0.00002451034, -0.00000124914,  0.00000006151, -0.00002210012,  0.00189064590,  0.00023369600, -0.00000266433, -0.00000130370,  0.00001163917,  0.01025341354, -0.00007107677,  0.00003186686,  0.00000213580,  0.00002564297, -0.00000043675, -0.00000041548,  0.00001026392,  0.00000010877,  0.00000687882
1329068201634299,  0.00399859537, -0.00015530718, -0.00002434038, -0.00000003553,  0.00000036902, -0.00002267655,  0.00188070361,  0.00023556956, -0.00000270872, -0.00000109558,  0.00001114108,  0.00993959909, -0.00007281200,  0.00003092175,  0.00000291469,  0.00002518586, -0.00000051210, -0.00000047616,  0.00001096158,  0.00000017856,  0.00000724694
1329068205234643,  0.00380583479, -0.00018379641, -0.00002128444,  0.00000058282,  0.00000045431, -0.00002146223,  0.00186027399,  0.00023805474, -0.00000282953, -0.00000150731,  0.00000809989,  0.00972680043, -0.00008507326,  0.00001629079,  0.00000160002,  0.00002431719,  0.00000234064, -0.00000007423,  0.00001146600,  0.00000016736,  0.00000728076
1329068208834996,  0.00361520655, -0.00019785506, -0.00001946757,  0.00000096403,  0.00000015276, -0.00001639933,  0.00182775573,  0.00024504176, -0.00000330803, -0.00000149907, -0.00000189473,  0.00974613244, -0.00011553648,  0.00000085918,  0.00000017420,  0.00002121664,  0.00000248967,  0.00000008141,  0.00001012870,  0.00000012748,  0.00000611881
1329068212435342,  0.00348451472, -0.00024825849, -0.00001779219,  0.00000110808,  0.00000008214, -0.00001314743,  0.00181871583,  0.00024579080, -0.00000381407, -0.00000046271, -0.00000502089,  0.00953563911, -0.00011893035,  0.00002436220,  0.00000345565,  0.00002090951,  0.00000067873, -0.00000023565,  0.00001079132,  0.00000019625,  0.00000650774
1329068216035708,  0.00338101302, -0.00030704969, -0.00002132082,  0.00000232498, -0.00000070646, -0.00000897022,  0.00180496745,  0.00024345370, -0.00000375428,  0.00000107555, -0.00000659323,  0.00919147571, -0.00010985192,  0.00004561773,  0.00000538929,  0.00002043266, -0.00000156910, -0.00000046913,  0.00001261520,  0.00000031470,  0.00000719760
1329068219436019,  0.00327734087, -0.00036780174, -0.00002105988,  0.00000311891, -0.00000206431, -0.00000925537,  0.00175819240,  0.00023709168, -0.00000311979,  0.00000251657, -0.00001103686,  0.00872515780, -0.00009370913,  0.00007209581,  0.00000408056,  0.00001528952, -0.00000204943, -0.00000019128,  0.00001305765,  0.00000027980,  0.00000592339
1329068223036368,  0.00319213775, -0.00042152482,  0.00000297350,  0.00000022888, -0.00000339997, -0.00000866985,  0.00166669644,  0.00021927081, -0.00000104259,  0.00000298011, -0.00001134041,  0.00786846671, -0.00001097646,  0.00009503624,  0.00000038537,  0.00001056634, -0.00000189488, -0.00000010083,  0.00001552730, -0.00000001320,  0.00000545709
1329068227236774,  0.00321930480, -0.00045782101,  0.00002396458, -0.00000194592, -0.00000027864, -0.00000696085,  0.00162303428,  0.00020344474,  0.00000152751,  0.00000155569, -0.00000302472,  0.00727594765,  0.00005239166,  0.00000608315, -0.00000026351,  0.00001872094,  0.00000002509, -0.00000022019,  0.00001149737,  0.00000005579,  0.00000666523
1329068230837120,  0.00329623656, -0.00047696299,  0.00002353291,  0.00000018012, -0.00000147261, -0.00001496098,  0.00163294752,  0.00020112130,  0.00000180532,  0.00000173719, -0.00000277121,  0.00726022221,  0.00005590337,  0.00001599247,  0.00000949554,  0.00002069789,  0.00000276473,  0.00000217855,  0.00001259364,  0.00000066314,  0.00000712804
1329068234637562,  0.00329983063, -0.00048960691,  0.00002759651,  0.00000186229, -0.00000116079, -0.00001423387,  0.00163738463,  0.00019817076, -0.00000157258,  0.00000091349, -0.00000018966,  0.00720092381, -0.00000844986,  0.00005059801,  0.00000213957,  0.00001323369, -0.00000359128, -0.00000008334,  0.00002477777,  0.00000054023,  0.00000763976
1329068240438048,  0.00320008394, -0.00047083974,  0.00002719551,  0.00000253792,  0.00000080665, -0.00000456976,  0.00161137040,  0.00020071274, -0.00000153450, -0.00000115701,  0.00000079705,  0.00709912949, -0.00003438631, -0.00000405873, -0.00000016714,  0.00001982419, -0.00000003385,  0.00000019463,  0.00000937354,  0.00000017344,  0.00000575630
1329068244238416,  0.00314523210, -0.00046583262,  0.00001883526,  0.00000391906,  0.00000124917, -0.00000401077,  0.00161576523,  0.00020621740, -0.00000246299, -0.00000064372, -0.00000070303,  0.00720415614, -0.00004832288, -0.00001298370,  0.00000281650,  0.00001713316,  0.00000218252, -0.00000058960,  0.00000965412,  0.00000001177,  0.00000559241
1329068248238802,  0.00310916367, -0.00048987286,  0.00002367580,  0.00000478570, -0.00000253878, -0.00000387114,  0.00162169575,  0.00020236816, -0.00000200996,  0.00000160628,  0.00000161365,  0.00710209240, -0.00003614271,  0.00001877182,  0.00000343570,  0.00001730234, -0.00000362161, -0.00000084620,  0.00001095119,  0.00000035253,  0.00000596693
1329068251639128,  0.00308727815, -0.00052238577,  0.00003655160,  0.00000677805, -0.00000328475, -0.00000644261,  0.00162565239,  0.00019386478, -0.00000147231,  0.00000243176,  0.00000371643,  0.00695553506, -0.00001670341,  0.00001766191,  0.00000213469,  0.00002372963, -0.00000257083, -0.00000119086,  0.00001036559,  0.00000019911,  0.00000695416
1329068255239484,  0.00304096947, -0.00054633443,  0.00005390293,  0.00000983109, -0.00000264722, -0.00000831572,  0.00162422391,  0.00018071489, -0.00000117155,  0.00000341150,  0.00000332569,  0.00683332597, -0.00000615200,  0.00001800147,  0.00000111992,  0.00003140008,  0.00000152446, -0.00000036272,  0.00001028308, -0.00000008178,  0.00000756222
1329068258839824,  0.00295987996, -0.00055648098,  0.00007710334,  0.00001492974, -0.00000359118, -0.00001281049,  0.00162569379,  0.00016050999,  0.00000082829,  0.00000501635,  0.00000360275,  0.00667825368,  0.00000660567,  0.00002031560,  0.00000180298,  0.00003832409, -0.00000196399,  0.00000159024,  0.00000998487, -0.00000009231,  0.00000817794
1329068278441721,  0.00286356565, -0.00054795812,  0.00009302782,  0.00000778334, -0.00000127527, -0.00000580450,  0.00163456624,  0.00013283066, -0.00000048755,  0.00000225751,  0.00000408623,  0.00653291957,  0.00000376945,  0.00001253329,  0.00000311781,  0.00004496275, -0.00000049128,  0.00000913343,  0.00001097786, -0.00000001793,  0.00001201038
1329068293443172,  0.00271129359, -0.00053298879,  0.00010629996,  0.00000793419, -0.00000018528, -0.00001310064,  0.00160773985,  0.00010715494, -0.00000006785,  0.00000231281,  0.00000591240,  0.00631189199,  0.00000668255,  0.00002246168,  0.00000388387,  0.00003972032, -0.00000256289,  0.00000786433,  0.00000969110, -0.00000057991,  0.00001038996
1329068309044729,  0.00259246160, -0.00051152772,  0.00011402780,  0.00000403673,  0.00000066527, -0.00000987997,  0.00160418563,  0.00008502109,  0.00000015895,  0.00000101658,  0.00000815739,  0.00610019602,  0.00000607697,  0.00002271310,  0.00000391482,  0.00003870557,  0.00000331540,  0.00000862545,  0.00001002809,  0.00000102217,  0.00001100194
1329068319645714,  0.00248725267, -0.00048000804,  0.00011813215,  0.00000193874,  0.00000061350, -0.00001133053,  0.00158739519,  0.00006585515, -0.00000074760,  0.00000022564,  0.00000439846,  0.00586819217, -0.00001881159,  0.00002389201, -0.00000268633,  0.00003774441,  0.00000287468,  0.00000807981,  0.00000945412,  0.00000084842,  0.00001009056
1329068324646185,  0.00235518136, -0.00044253069,  0.00012453619, -0.00000116806,  0.00000050181, -0.00001441866,  0.00153065799,  0.00005325388, -0.00000012366, -0.00000133676, -0.00000085265,  0.00562659049, -0.00003219788,  0.00002681253, -0.00000402726,  0.00001258909,  0.00000093411,  0.00000134021,  0.00000757423,  0.00000022637,  0.00000491602
1329068331646865,  0.00227864596, -0.00043548664,  0.00011870771,  0.00000033194,  0.00000259489, -0.00000820488,  0.00152197305,  0.00005298911, -0.00000160079, -0.00000084255,  0.00000473940,  0.00539541845,  0.00002029167,  0.00001459272, -0.00000056251,  0.00000654913,  0.00000089177, -0.00000009514,  0.00001093202, -0.00000002485,  0.00000407759
1329068335647248,  0.00228661147, -0.00047148207,  0.00011223155,  0.00000044782,  0.00000061027, -0.00000674456,  0.00161300766,  0.00005844759, -0.00000055891, -0.00000051812,  0.00001469584,  0.00540121460,  0.00001433704, -0.00001247395, -0.00000044183,  0.00001173547,  0.00000135300, -0.00000041828,  0.00000599777, -0.00000010947,  0.00000366724
1329068339247603,  0.00234332122, -0.00049828895,  0.00010826790,  0.00000040961,  0.00000094319, -0.00000276830,  0.00175023556,  0.00006228839, -0.00000168875, -0.00000087244,  0.00001167986,  0.00552260309,  0.00000238190, -0.00001170789,  0.00000002201,  0.00003472937,  0.00000230521, -0.00000208878,  0.00000833440, -0.00000018265,  0.00000670905
1329068342847950,  0.00235164642, -0.00052072435,  0.00010672990,  0.00000047111,  0.00000067399, -0.00000083370,  0.00186524312,  0.00006776854, -0.00000199471, -0.00000069387,  0.00001221220,  0.00566042842, -0.00000504424, -0.00001506459,  0.00000048821,  0.00003676102, -0.00000038062, -0.00000229906,  0.00000827670,  0.00000003531,  0.00000706656
1329068346248277,  0.00235478653, -0.00053674093,  0.00010710543,  0.00000042562,  0.00000034816, -0.00000010685,  0.00197662265,  0.00007254823, -0.00000154095, -0.00000045764,  0.00001294720,  0.00581416818, -0.00000563770, -0.00001766682,  0.00000077264,  0.00003741331, -0.00000042733, -0.00000220291,  0.00000809973,  0.00000001934,  0.00000700241
1329068349848627,  0.00235955513, -0.00054520286,  0.00010952938,  0.00000014535, -0.00000014450,  0.00000175493,  0.00210294036,  0.00007733239, -0.00000031112, -0.00000081405,  0.00001347727,  0.00600317259, -0.00001186693, -0.00001997519,  0.00000067640,  0.00003851989,  0.00000097143, -0.00000232413,  0.00000808557, -0.00000004843,  0.00000706723